Weather History for Arbor Vitae, WI

Change the Weather History Date:

Tuesday, April 30, 2013

  Actual Average Record
Temperature  
Mean Temperature 66 °F -  
Max Temperature 80 °F 61 °F 85 °F (1952)
Min Temperature 51 °F 33 °F 10 °F (1945)
Growing Degree Days 16 (Base 50)    
Moisture  
Dew Point 48 °F    
Average Humidity 62    
Maximum Humidity 94    
Minimum Humidity 24    
Precipitation  
Precipitation 0.00 in - - ()
Sea Level Pressure  
Sea Level Pressure 29.66 in    
Wind  
Wind Speed 8 mph (SSW)    
Max Wind Speed 21 mph    
Max Gust Speed 31 mph    
Visibility 9 miles    
Events Rain    
Averages and records for this station are not official NWS values.
T = Trace of Precipitation, MM = Missing Value Source: NWS Daily Summary

Daily Weather History Graph

Daily Weather History Graph

Search for Another Location

Airport:

Trip Planner

Search our weather history database for the weather conditions in past years. The results will help you decide how hot, cold, wet, or windy it might be!

Date:

Astronomy

Apr. 30, 2013 Rise Set
Actual Time 5:47 AM CDT 8:05 PM CDT
Civil Twilight 5:14 AM CDT 8:38 PM CDT
Nautical Twilight 4:33 AM CDT 9:20 PM CDT
Astronomical Twilight 3:47 AM CDT 10:06 PM CDT
Moon 12:32 AM CDT (4/30) 10:12 AM CDT (4/30)
Length of Visible Light 15h 24m
Length of Day
14h 18m
Waning Gibbous, 70% of the Moon is Illuminated
Apr 30
Waning Gibbous
May 2
Last Quarter
May 9
New
May 17
First Quarter
May 24
Full

Hourly Weather History & Observations

Time (CDT) Temp. Dew Point Humidity Pressure Visibility Wind Dir Wind Speed Gust Speed Precip Events Conditions
12:15 AM 53.6 °F 50.0 °F 88% 29.70 in 10.0 mi SSE 4.6 mph - N/A   Scattered Clouds
12:35 AM 55.4 °F 51.8 °F 88% 29.69 in 10.0 mi SSE 5.8 mph - N/A   Mostly Cloudy
12:55 AM 55.4 °F 51.8 °F 88% 29.69 in 10.0 mi SE 4.6 mph - N/A   Mostly Cloudy
1:15 AM 53.6 °F 50.0 °F 88% 29.69 in 10.0 mi SE 3.5 mph - N/A   Clear
1:35 AM 51.8 °F 50.0 °F 94% 29.68 in 10.0 mi SE 4.6 mph - N/A   Clear
1:55 AM 53.6 °F 50.0 °F 88% 29.67 in 10.0 mi ESE 4.6 mph - N/A   Clear
2:15 AM 51.8 °F 50.0 °F 94% 29.66 in 10.0 mi ESE 5.8 mph - N/A   Clear
2:35 AM 51.8 °F 50.0 °F 94% 29.64 in 10.0 mi ESE 5.8 mph - N/A   Clear
2:55 AM 51.8 °F 48.2 °F 88% 29.64 in 7.0 mi ESE 5.8 mph - N/A   Clear
3:15 AM 51.8 °F 48.2 °F 88% 29.63 in 7.0 mi ESE 6.9 mph - N/A   Clear
3:35 AM 51.8 °F 50.0 °F 94% 29.63 in 5.0 mi SE 4.6 mph - N/A   Clear
3:55 AM 51.8 °F 50.0 °F 94% 29.63 in 5.0 mi SE 6.9 mph - N/A   Clear
4:15 AM 51.8 °F 50.0 °F 94% 29.63 in 5.0 mi SE 5.8 mph - N/A   Clear
4:35 AM 51.8 °F 50.0 °F 94% 29.63 in 5.0 mi SE 5.8 mph - N/A   Clear
4:55 AM 51.8 °F 50.0 °F 94% 29.62 in 5.0 mi SE 5.8 mph - N/A   Clear
5:15 AM 51.8 °F 50.0 °F 94% 29.62 in 4.0 mi SE 5.8 mph - N/A   Clear
5:35 AM 51.8 °F 50.0 °F 94% 29.62 in 4.0 mi SE 5.8 mph - N/A   Clear
5:55 AM 51.8 °F 50.0 °F 94% 29.61 in 3.0 mi SE 4.6 mph - N/A   Scattered Clouds
6:15 AM 51.8 °F 50.0 °F 94% 29.61 in 3.0 mi SE 4.6 mph - N/A   Clear
6:35 AM 51.8 °F 50.0 °F 94% 29.61 in 3.0 mi SE 3.5 mph - N/A   Mostly Cloudy
6:55 AM 53.6 °F 51.8 °F 94% 29.60 in 3.0 mi SE 6.9 mph - N/A   Overcast
7:15 AM 55.4 °F 53.6 °F 94% 29.60 in 5.0 mi SSE 6.9 mph - N/A   Overcast
7:35 AM 55.4 °F 53.6 °F 94% 29.59 in 5.0 mi SSE 8.1 mph - N/A   Mostly Cloudy
7:55 AM 55.4 °F 53.6 °F 94% 29.59 in 7.0 mi SSE 9.2 mph - N/A   Scattered Clouds
8:15 AM 59.0 °F 53.6 °F 82% 29.58 in 10.0 mi South 10.4 mph 17.3 mph N/A   Clear
8:35 AM 60.8 °F 53.6 °F 77% 29.58 in 10.0 mi South 17.3 mph 20.7 mph N/A   Clear
8:55 AM 62.6 °F 53.6 °F 72% 29.57 in 10.0 mi South 10.4 mph 17.3 mph N/A   Clear
9:15 AM 62.6 °F 53.6 °F 72% 29.56 in 10.0 mi South 15.0 mph 20.7 mph N/A   Clear
9:35 AM 62.6 °F 55.4 °F 77% 29.55 in 10.0 mi South 11.5 mph 19.6 mph N/A   Clear
9:55 AM 64.4 °F 55.4 °F 73% 29.53 in 10.0 mi South 12.7 mph 18.4 mph N/A   Clear
10:15 AM 68.0 °F 55.4 °F 64% 29.54 in 10.0 mi South 15.0 mph 20.7 mph N/A   Clear
10:35 AM 71.6 °F 55.4 °F 57% 29.54 in 10.0 mi South 18.4 mph 24.2 mph N/A   Clear
10:55 AM 71.6 °F 55.4 °F 57% 29.53 in 10.0 mi South 18.4 mph 26.5 mph N/A   Clear
11:15 AM 73.4 °F 55.4 °F 53% 29.53 in 10.0 mi South 13.8 mph 24.2 mph N/A   Clear
11:35 AM 77.0 °F 55.4 °F 47% 29.54 in 10.0 mi SSW 18.4 mph 28.8 mph N/A   Clear
11:55 AM 77.0 °F 55.4 °F 47% 29.55 in 10.0 mi SSW 13.8 mph 25.3 mph N/A   Clear
12:15 PM 77.0 °F 53.6 °F 44% 29.54 in 10.0 mi SSW 18.4 mph 26.5 mph N/A   Clear
12:35 PM 77.0 °F 55.4 °F 47% 29.55 in 10.0 mi SSW 20.7 mph 31.1 mph N/A   Clear
12:55 PM 77.0 °F 55.4 °F 47% 29.57 in - SW 17.3 mph 23.0 mph N/A   Mostly Cloudy
1:15 PM 77.0 °F 53.6 °F 44% 29.57 in - SSW 18.4 mph 29.9 mph N/A   Scattered Clouds
1:35 PM 78.8 °F 53.6 °F 42% 29.57 in - SSW 16.1 mph 26.5 mph N/A   Scattered Clouds
1:55 PM 78.8 °F 53.6 °F 42% 29.58 in - SW 9.2 mph 23.0 mph N/A   Scattered Clouds
2:15 PM 78.8 °F 51.8 °F 39% 29.60 in - SW 17.3 mph 27.6 mph N/A   Scattered Clouds
2:35 PM 78.8 °F 51.8 °F 39% 29.61 in - SW 13.8 mph 26.5 mph N/A   Scattered Clouds
2:55 PM 78.8 °F 51.8 °F 39% 29.62 in - SW 11.5 mph 21.9 mph N/A   Scattered Clouds
3:15 PM 78.8 °F 50.0 °F 36% 29.63 in - WSW 19.6 mph 26.5 mph N/A   Scattered Clouds
3:35 PM 80.6 °F 50.0 °F 34% 29.63 in - SW 15.0 mph 19.6 mph N/A   Scattered Clouds
3:55 PM 78.8 °F 50.0 °F 36% 29.64 in - SW 11.5 mph 18.4 mph N/A   Scattered Clouds
4:15 PM - - N/A% 29.65 in - SW 15.0 mph - N/A   Unknown
4:35 PM 78.8 °F 44.6 °F 30% 29.64 in - SW 11.5 mph 19.6 mph N/A   Clear
4:55 PM 78.8 °F 42.8 °F 28% 29.67 in - West 16.1 mph 26.5 mph N/A   Clear
5:15 PM 78.8 °F 39.2 °F 24% 29.68 in 10.0 mi West 8.1 mph 18.4 mph N/A   Clear
5:35 PM 77.0 °F 41.0 °F 28% 29.69 in 10.0 mi West 13.8 mph 20.7 mph N/A   Clear
5:55 PM 77.0 °F 41.0 °F 28% 29.70 in 10.0 mi West 9.2 mph 17.3 mph N/A   Clear
6:15 PM 77.0 °F 42.8 °F 29% 29.71 in 10.0 mi WSW 8.1 mph 19.6 mph N/A   Clear
6:35 PM 75.2 °F 42.8 °F 31% 29.73 in 10.0 mi West 6.9 mph 24.2 mph N/A   Clear
6:55 PM 71.6 °F 41.0 °F 33% 29.75 in 10.0 mi West 10.4 mph 19.6 mph N/A   Clear
7:15 PM 71.6 °F 42.8 °F 35% 29.77 in 10.0 mi WNW 12.7 mph 18.4 mph N/A   Clear
7:35 PM 69.8 °F 35.6 °F 28% 29.79 in 10.0 mi West 9.2 mph - N/A   Clear
7:55 PM 66.2 °F 35.6 °F 32% 29.79 in 10.0 mi WNW 3.5 mph - N/A   Clear
8:15 PM 62.6 °F 33.8 °F 34% 29.80 in 10.0 mi WNW 5.8 mph - N/A   Clear
8:35 PM 62.6 °F 33.8 °F 34% 29.81 in 10.0 mi WNW 6.9 mph - N/A   Clear
8:55 PM 60.8 °F 32.0 °F 34% 29.82 in 10.0 mi NW 4.6 mph - N/A   Clear
9:15 PM 60.8 °F 33.8 °F 36% 29.84 in 10.0 mi NW 4.6 mph - N/A   Scattered Clouds
9:35 PM 60.8 °F 33.8 °F 36% 29.83 in 10.0 mi Calm Calm - N/A   Mostly Cloudy
10:15 PM 59.0 °F 33.8 °F 39% 29.84 in 10.0 mi WNW 3.5 mph - N/A   Overcast
10:35 PM 55.4 °F 41.0 °F 58% 29.88 in 10.0 mi South 4.6 mph - N/A Rain Light Rain
10:55 PM 55.4 °F 42.8 °F 63% 29.89 in 10.0 mi South 5.8 mph - N/A Rain Light Rain
11:15 PM 55.4 °F 42.8 °F 63% 29.90 in 10.0 mi Calm Calm - N/A   Mostly Cloudy
11:35 PM 55.4 °F 44.6 °F 67% 29.89 in 10.0 mi Calm Calm - N/A   Mostly Cloudy
11:55 PM 51.8 °F 42.8 °F 71% 29.90 in 10.0 mi Calm Calm - N/A   Mostly Cloudy